Wind_Speed
43 41 38 33 31 28 25 17 4 11 15 4 3 4 3 4 3 3 3 5 5 4 3 3 2 4 1 1 1 2 1 2 1 2 2 2 0 1 2 2 3 0 1 3
43 42 39 34 31 29 26 13 4 10 17 4 1 1 2 2 3 2 2 3 3 2 4 3 2 3 2 2 2 3 4 1 1 2 2 1 1 1 3 4 1 6 3 1
43 40 37 36 32 28 23 9 2 3 4 4 7 5 3 4 4 3 6 5 5 4 3 5 5 3 1 1 3 4 3 2 3 3 1 2 3 4 3 3 3 3 8 3
41 39 37 36 33 31 26 8 2 5 3 4 5 4 5 5 4 3 4 4 3 6 4 2 3 2 2 2 4 2 2 3 3 3 3 3 4 9 10 11 7 7 1 3
41 38 36 34 34 34 24 11 9 6 3 12 7 3 3 5 3 3 1 5 4 4 6 6 7 7 5 4 2 2 1 2 1 2 3 2 7 15 11 11 11 13 11 11
40 38 36 35 35 35 18 11 15 8 0 2 4 6 5 5 12 3 4 10 6 5 4 6 1 5 7 7 7 4 3 4 2 3 4 6 7 5 6 4 5 6 7 3
39 38 37 36 35 34 17 17 16 6 2 2 4 7 5 5 2 7 4 9 5 9 18 20 17 16 13 9 8 3 5 4 1 2 4 2 1 0 5 6 3 5 4 6
36 35 33 31 31 31 16 21 13 6 3 5 5 10 8 14 10 6 5 3 9 25 8 4 4 3 2 3 7 3 1 4 2 1 2 7 1 3 5 5 4 11 6 6
36 35 33 31 30 30 24 18 14 8 15 3 7 6 8 4 3 4 4 8 26 10 4 3 4 4 3 3 1 4 5 4 2 2 2 4 1 4 5 4 4 12 11 10
34 32 30 27 26 25 24 21 16 12 9 7 8 4 5 7 7 4 6 8 7 3 2 2 3 3 2 5 6 5 3 2 6 3 4 8 4 7 7 1 1 14 13 6
31 29 26 24 24 24 23 20 17 15 8 10 6 6 6 8 8 4 12 6 2 2 2 3 3 3 5 3 5 6 7 7 4 4 4 7 10 7 5 1 9 13 11 6
19 22 19 22 23 22 19 21 17 14 14 10 11 9 8 6 10 9 20 2 6 9 4 1 3 2 2 3 3 1 4 5 4 9 5 1 17 3 7 10 10 9 8 6
16 15 18 19 22 23 21 20 20 16 20 14 9 9 6 6 9 11 7 5 7 7 6 8 2 3 3 4 5 3 3 6 3 2 3 8 12 17 10 11 7 7 5 5
19 18 20 23 23 23 20 22 19 16 10 6 4 7 7 5 5 8 6 6 11 13 9 4 2 2 6 2 1 2 3 8 4 4 6 6 15 17 14 11 8 7 5 4
19 18 17 18 19 20 21 20 20 19 8 6 8 11 8 6 5 5 7 11 13 11 5 3 2 4 5 2 1 3 9 6 5 5 7 5 2 8 20 16 11 9 6 7
20 20 19 19 20 20 21 10 9 14 9 7 3 5 6 9 8 11 13 11 8 5 5 4 5 5 4 3 3 10 17 16 14 4 5 10 5 4 17 15 11 8 7 7
20 19 18 19 19 21 7 9 14 15 12 5 6 4 3 4 5 7 8 6 5 4 4 3 3 2 2 2 3 5 8 12 13 9 6 6 8 7 16 13 11 10 9 9
22 21 19 18 17 18 21 19 17 16 8 6 4 3 2 3 2 2 4 4 4 5 4 3 2 2 1 3 12 10 7 9 9 11 11 6 8 10 15 13 11 9 7 9
22 23 22 19 14 8 14 16 14 10 6 6 4 4 3 3 3 3 3 3 2 1 2 1 2 1 5 7 7 5 9 7 8 13 9 7 10 12 13 12 10 9 8 10
19 11 5 6 9 18 14 5 3 3 5 5 5 5 3 4 2 3 2 4 2 0 1 2 2 3 19 16 13 9 5 13 11 14 12 13 13 14 13 12 8 8 7 10
6 4 5 15 11 4 3 4 5 3 4 4 4 4 5 3 3 3 2 3 1 0 1 1 1 3 4 6 10 10 16 11 12 9 5 6 6 10 13 13 11 9 9 10
9 15 15 6 3 4 6 2 2 3 2 3 5 5 5 5 3 4 2 2 3 0 3 1 2 3 7 9 7 3 9 14 14 11 6 5 6 8 10 11 11 10 11 14
8 4 4 2 4 7 3 2 1 2 4 5 8 5 4 4 2 5 2 2 2 5 1 2 4 8 11 9 4 1 7 12 12 10 8 6 7 9 9 10 12 12 15 16
5 4 5 3 3 3 2 2 3 4 6 14 12 6 3 3 2 2 3 2 4 2 2 3 3 8 11 4 3 5 8 11 10 9 8 7 8 11 11 9 12 15 16 17
5 4 3 3 3 4 5 5 6 7 14 15 9 5 2 2 3 1 3 3 2 3 3 2 7 14 6 3 8 8 9 10 10 9 8 8 10 11 13 15 15 16 16 17
4 5 5 4 5 3 5 7 8 10 15 8 3 3 1 1 2 3 4 4 4 1 2 8 14 10 4 5 9 11 9 10 10 10 10 10 11 12 14 17 16 16 15 16
4 4 7 8 8 6 5 7 7 15 9 2 2 2 2 3 1 2 2 2 2 10 12 9 8 5 3 5 9 11 11 12 12 11 12 12 13 14 16 17 17 17 16 15
Wind_Direction
184 179 179 180 177 173 171 162 104 177 163 96 64 154 180 135 133 87 91 91 96 124 143 119 130 181 76 348 150 67 34 114 5 52 62 240 340 148 161 208 199 228 344 271
184 182 179 180 178 175 168 139 115 171 169 136 155 223 94 85 128 113 109 102 88 97 121 116 123 150 56 119 96 160 178 66 304 172 172 122 60 80 113 103 103 209 215 257
185 184 180 177 179 173 161 138 102 99 177 153 143 143 136 113 58 76 84 108 84 98 94 26 151 139 66 59 113 121 123 137 227 232 140 124 200 221 198 176 195 216 236 270
185 183 180 179 177 173 175 174 134 166 175 227 164 135 136 131 133 84 87 60 123 136 111 90 139 126 126 57 136 91 129 215 206 249 233 207 238 240 211 220 232 240 347 214
184 183 181 177 179 177 174 163 142 130 95 161 126 57 165 137 128 115 149 128 149 133 147 179 187 153 194 191 168 148 52 175 145 252 95 176 255 257 246 242 246 252 258 275
183 182 180 179 183 181 184 164 152 161 334 117 105 164 165 172 129 60 120 153 120 134 168 144 107 146 153 151 154 153 144 142 116 256 343 302 266 250 194 191 215 223 217 204
179 180 181 183 184 186 183 167 150 148 173 151 160 139 124 144 146 134 118 148 111 138 123 104 92 80 89 93 66 124 142 113 64 289 339 260 66 249 226 209 214 172 126 172
178 183 182 184 187 185 176 171 176 150 110 116 86 127 114 112 100 85 110 90 139 144 127 77 66 12 83 62 36 37 76 128 101 283 246 308 206 179 168 195 242 193 183 177
175 178 180 182 186 190 185 172 174 147 124 205 125 123 150 131 104 70 82 125 151 158 93 99 147 191 183 188 126 52 75 73 135 135 237 256 122 179 160 143 273 183 185 186
165 170 173 176 180 186 191 187 184 173 106 134 138 127 164 143 121 103 135 144 169 147 111 116 154 202 172 177 184 171 149 147 204 163 251 278 206 166 153 236 53 171 186 186
162 163 167 168 176 182 183 173 181 175 110 122 138 136 142 149 163 143 153 108 184 88 124 145 183 172 203 181 163 176 176 160 187 170 214 271 159 138 200 171 143 167 179 202
161 162 162 174 177 178 173 168 160 152 148 122 125 125 140 156 159 142 166 161 157 163 100 147 124 149 164 173 210 147 204 198 186 202 217 190 189 203 204 169 173 180 188 194
142 149 157 167 172 175 179 167 165 157 114 112 119 110 118 146 158 152 153 180 170 165 128 143 127 152 150 174 226 171 231 186 230 183 201 221 220 222 216 199 191 171 173 177
125 139 155 166 161 164 160 156 164 168 137 107 105 124 117 103 152 166 170 171 162 150 127 103 130 150 189 190 118 213 215 160 188 253 255 261 240 228 216 198 182 176 172 157
114 120 131 141 149 157 162 164 156 160 157 127 117 116 87 98 114 168 158 154 160 147 116 101 151 137 145 105 121 238 190 190 186 228 221 215 207 241 213 202 193 190 178 153
115 115 118 126 133 138 143 112 152 177 155 111 106 108 93 101 120 143 147 156 154 146 134 139 156 177 185 156 201 250 226 225 229 244 207 214 249 227 198 194 188 181 167 183
111 115 123 129 140 147 113 122 140 146 153 109 107 87 130 126 130 103 91 96 100 98 87 69 105 139 189 155 201 274 245 238 234 238 216 201 196 186 185 192 184 182 179 203
111 114 118 120 121 106 97 112 124 137 137 103 105 92 110 116 74 72 80 85 95 65 99 122 133 160 218 252 241 259 254 232 222 213 210 225 195 176 182 191 195 179 183 198
112 111 107 100 87 73 106 118 99 100 102 102 90 130 142 129 83 81 74 79 70 99 111 151 161 135 229 232 230 237 235 217 214 194 189 178 180 182 189 193 189 187 196 204
124 117 84 79 99 117 116 97 89 66 51 68 83 121 123 136 105 73 84 47 55 57 50 142 211 263 256 272 273 261 253 224 212 183 175 177 182 189 196 200 207 206 207 204
126 86 74 117 121 112 78 79 57 31 64 67 105 112 124 125 120 124 80 113 88 101 70 265 290 265 265 305 303 284 231 230 216 213 214 201 213 201 201 201 203 195 204 199
105 114 113 97 84 75 79 33 59 43 107 112 116 123 110 120 115 105 147 112 177 110 160 266 262 254 293 316 322 284 200 204 203 203 202 200 219 196 195 198 190 190 190 175
90 91 89 34 26 53 79 122 96 117 154 138 143 120 109 113 115 86 148 153 151 138 204 251 247 274 302 308 317 162 174 188 199 202 208 206 189 173 177 181 180 178 169 163
61 53 40 55 16 67 78 88 107 111 125 134 145 106 122 122 125 147 151 91 145 175 222 241 253 304 320 291 180 153 156 171 188 197 200 188 175 168 165 169 172 167 165 160
64 42 65 61 95 88 97 80 91 94 134 133 133 94 120 119 118 191 119 154 197 217 224 234 332 330 309 255 174 167 169 173 181 188 187 182 174 172 167 161 163 162 163 163
62 68 88 105 101 91 100 93 91 130 144 134 133 127 124 135 130 171 201 174 210 230 251 324 329 328 271 214 176 177 181 183 188 186 184 181 176 176 171 166 166 164 167 172
63 71 94 99 99 111 113 115 123 152 148 120 118 155 177 106 176 227 194 214 3 322 330 327 323 318 292 204 191 189 193 196 192 188 185 182 181 177 176 178 173 171 171 174
Height
1461 1466 1474 1482 1487 1495 1501 1505 1510 1517 1518 1522 1528 1531 1528 1529 1531 1532 1534 1537 1542 1551 1556 1561 1565 1567 1570 1572 1572 1574 1577 1579 1578 1583 1583 1581 1579 1580 1579 1576 1583 1589 1589 1574
1458 1465 1473 1481 1487 1490 1496 1502 1511 1515 1514 1525 1531 1529 1528 1529 1531 1532 1535 1540 1541 1548 1557 1563 1568 1570 1572 1572 1573 1575 1576 1580 1578 1578 1582 1581 1581 1583 1585 1586 1587 1582 1580 1568
1456 1464 1470 1475 1483 1488 1495 1502 1513 1513 1515 1519 1521 1527 1529 1532 1532 1534 1535 1540 1542 1549 1558 1562 1568 1571 1573 1572 1573 1574 1576 1582 1575 1571 1576 1581 1582 1584 1584 1581 1583 1575 1570 1572
1452 1460 1467 1475 1481 1487 1495 1501 1504 1510 1518 1520 1519 1520 1525 1531 1534 1534 1535 1541 1543 1547 1560 1564 1568 1571 1574 1574 1575 1575 1576 1576 1581 1580 1581 1582 1581 1578 1580 1580 1576 1576 1571 1574
1451 1459 1467 1471 1480 1486 1492 1497 1502 1509 1514 1515 1515 1517 1525 1528 1533 1534 1538 1541 1545 1547 1554 1555 1564 1567 1571 1569 1575 1575 1577 1577 1581 1579 1584 1584 1581 1572 1576 1579 1578 1575 1576 1574
1448 1456 1463 1469 1477 1483 1488 1492 1496 1502 1514 1514 1514 1515 1524 1526 1528 1537 1537 1540 1544 1549 1552 1554 1556 1561 1563 1565 1569 1575 1577 1578 1580 1573 1582 1577 1570 1565 1570 1571 1572 1568 1570 1570
1446 1455 1463 1470 1475 1482 1486 1491 1495 1501 1516 1515 1513 1515 1521 1526 1529 1534 1540 1542 1542 1551 1553 1556 1560 1563 1567 1569 1571 1572 1576 1578 1584 1579 1580 1576 1563 1567 1568 1568 1569 1571 1571 1573
1444 1452 1458 1465 1471 1479 1487 1489 1494 1497 1510 1511 1514 1518 1523 1528 1530 1535 1540 1543 1544 1548 1552 1561 1566 1571 1569 1574 1576 1575 1574 1577 1589 1588 1586 1570 1562 1566 1566 1564 1562 1566 1568 1572
1444 1452 1459 1467 1474 1480 1485 1488 1493 1494 1499 1512 1513 1518 1522 1528 1533 1539 1543 1546 1547 1550 1553 1560 1569 1567 1566 1572 1575 1577 1578 1578 1575 1598 1587 1571 1558 1564 1563 1565 1560 1562 1566 1568
1443 1450 1457 1464 1471 1476 1481 1486 1491 1495 1500 1510 1514 1517 1522 1525 1530 1538 1543 1547 1550 1549 1553 1560 1564 1563 1565 1566 1568 1576 1577 1578 1576 1589 1584 1569 1561 1563 1564 1564 1558 1561 1565 1568
1442 1450 1458 1464 1470 1475 1480 1485 1491 1496 1500 1510 1514 1517 1520 1524 1527 1530 1539 1545 1548 1550 1552 1555 1562 1562 1562 1563 1563 1565 1566 1573 1575 1581 1584 1571 1558 1562 1562 1558 1557 1560 1562 1565
1443 1450 1456 1463 1468 1474 1478 1485 1492 1496 1500 1511 1516 1519 1522 1524 1526 1527 1532 1534 1535 1539 1547 1555 1558 1561 1566 1562 1558 1563 1561 1558 1562 1563 1557 1554 1556 1555 1555 1557 1557 1558 1559 1561
1448 1452 1458 1465 1469 1473 1479 1485 1490 1495 1502 1516 1519 1520 1523 1523 1524 1526 1529 1533 1535 1535 1535 1543 1551 1555 1558 1559 1559 1557 1557 1557 1558 1558 1550 1552 1553 1552 1553 1555 1556 1556 1559 1560
1452 1457 1461 1466 1468 1472 1479 1484 1490 1496 1502 1510 1519 1520 1522 1524 1525 1526 1528 1529 1532 1534 1536 1541 1547 1550 1552 1556 1555 1554 1553 1554 1553 1552 1550 1551 1549 1548 1551 1553 1554 1556 1557 1558
1454 1460 1464 1466 1468 1471 1478 1484 1490 1495 1502 1509 1517 1521 1524 1525 1526 1528 1529 1529 1532 1534 1537 1541 1546 1547 1551 1555 1556 1554 1546 1544 1547 1542 1541 1542 1543 1544 1546 1548 1550 1553 1556 1557
1458 1461 1465 1466 1469 1475 1480 1487 1494 1495 1500 1506 1519 1526 1527 1527 1528 1527 1527 1530 1532 1534 1535 1540 1542 1544 1547 1549 1549 1537 1535 1536 1538 1538 1538 1539 1542 1542 1545 1548 1550 1552 1556 1558
1461 1466 1470 1472 1477 1479 1480 1484 1490 1495 1500 1505 1521 1526 1529 1530 1531 1530 1530 1531 1532 1535 1538 1541 1542 1544 1545 1548 1545 1533 1534 1537 1537 1537 1538 1539 1539 1540 1544 1547 1548 1550 1554 1557
1468 1471 1474 1477 1477 1480 1483 1489 1493 1498 1502 1506 1516 1525 1529 1530 1530 1532 1531 1532 1534 1536 1539 1543 1544 1546 1546 1544 1531 1531 1532 1533 1533 1534 1535 1537 1538 1540 1542 1546 1547 1549 1551 1554
1469 1473 1477 1478 1478 1486 1493 1495 1499 1500 1504 1505 1513 1521 1526 1529 1532 1533 1534 1534 1538 1540 1541 1542 1545 1545 1542 1527 1528 1528 1528 1530 1530 1532 1533 1534 1536 1539 1543 1545 1546 1550 1550 1552
1472 1478 1478 1483 1489 1495 1497 1501 1502 1504 1506 1509 1517 1522 1526 1529 1531 1535 1536 1537 1541 1541 1544 1544 1544 1537 1528 1526 1526 1525 1525 1526 1528 1528 1530 1531 1533 1536 1541 1543 1545 1548 1548 1549
1477 1479 1484 1490 1492 1495 1498 1500 1504 1508 1512 1514 1519 1521 1524 1529 1531 1534 1536 1539 1543 1543 1544 1544 1540 1533 1526 1524 1522 1520 1522 1526 1527 1528 1529 1532 1534 1532 1536 1541 1544 1545 1547 1548
1477 1481 1487 1490 1493 1495 1500 1509 1510 1511 1515 1517 1518 1522 1524 1529 1530 1533 1539 1540 1541 1540 1543 1542 1536 1527 1523 1522 1520 1519 1519 1522 1525 1526 1528 1530 1534 1532 1535 1539 1541 1544 1545 1547
1481 1484 1488 1493 1498 1503 1501 1513 1512 1513 1513 1516 1519 1523 1526 1529 1532 1535 1536 1535 1538 1540 1541 1536 1530 1522 1522 1520 1519 1518 1519 1521 1526 1526 1528 1530 1531 1531 1534 1537 1540 1543 1545 1547
1482 1485 1495 1498 1504 1505 1506 1509 1509 1512 1514 1516 1521 1523 1526 1528 1530 1532 1532 1535 1536 1536 1537 1531 1523 1522 1519 1516 1516 1518 1520 1522 1524 1526 1530 1530 1530 1531 1534 1537 1540 1542 1544 1546
1487 1491 1503 1504 1506 1507 1508 1509 1509 1511 1514 1518 1521 1524 1526 1528 1530 1531 1532 1535 1534 1531 1526 1523 1521 1518 1517 1516 1517 1519 1520 1522 1525 1528 1529 1530 1531 1532 1534 1537 1540 1542 1544 1547
1494 1498 1504 1506 1507 1509 1509 1510 1512 1514 1518 1521 1523 1524 1525 1525 1526 1526 1526 1525 1523 1522 1522 1521 1519 1517 1516 1516 1516 1519 1520 1522 1525 1526 1528 1530 1531 1533 1535 1537 1539 1542 1544 1547
1498 1503 1504 1505 1507 1509 1511 1512 1514 1517 1519 1521 1522 1522 1522 1526 1525 1524 1523 1522 1523 1523 1521 1519 1518 1516 1516 1516 1516 1517 1519 1521 1523 1524 1526 1529 1531 1533 1535 1537 1539 1541 1544 1548